This is the latest recevied weather packets stored in our database for station/object EB1TR-13. If no packets are shown the sender has not sent any weather packets the latest 10 day(s).
| Time | Temp. | Humidity | Pressure | Rain* | Wind** | Luminosity | Snow |
|---|---|---|---|---|---|---|---|
| 1787781488 | 18.33° C | 76% | 1009 hPa | 0 mm | - | 0 W/m² | - |
| 1787780588 | 18.33° C | 74% | 1009 hPa | 0 mm | - | 0 W/m² | - |
| 1787779689 | 18.33° C | 75% | 1009 hPa | 0 mm | - | 0 W/m² | - |
| 1787778788 | 18.33° C | 75% | 1009 hPa | 0 mm | - | 0 W/m² | - |
| 1787777889 | 19.44° C | 76% | 1008 hPa | 0 mm | - | 0 W/m² | - |
| 1787776988 | 20° C | 79% | 1008 hPa | 0 mm | - | 0 W/m² | - |
| 1787776088 | 20.56° C | 89% | 1008 hPa | 0 mm | - | 0 W/m² | - |
| 1787775188 | 20.56° C | 89% | 1007 hPa | 0 mm | - | 0 W/m² | - |
| 1787774288 | 20.56° C | 88% | 1007 hPa | 0 mm | - | 0 W/m² | - |
| 1787773388 | 21.11° C | 87% | 1007 hPa | 0 mm | - | 0 W/m² | - |
| 1787772489 | 21.67° C | 85% | 1007 hPa | 0 mm | - | 0 W/m² | - |
| 1787771589 | 22.22° C | 83% | 1007 hPa | 0 mm | - | 0 W/m² | - |
| 1787770689 | 22.22° C | 82% | 1007 hPa | 0 mm | - | 0 W/m² | - |
| 1787769789 | 22.78° C | 78% | 1007 hPa | 0 mm | - | 0 W/m² | - |
| 1787768889 | 22.78° C | 78% | 1007 hPa | 0 mm | - | 0 W/m² | - |
| 1787767988 | 22.22° C | 77% | 1007 hPa | 0 mm | - | 0 W/m² | - |
| 1787767088 | 22.22° C | 77% | 1006 hPa | 0 mm | - | 0 W/m² | - |
| 1787766188 | 22.22° C | 76% | 1006 hPa | 0 mm | - | 0 W/m² | - |
| 1787765289 | 22.22° C | 77% | 1006 hPa | 0 mm | - | 0 W/m² | - |
| 1787764388 | 22.22° C | 76% | 1006 hPa | 0 mm | - | 0 W/m² | - |
| 1787763488 | 23.33° C | 64% | 1005 hPa | 0 mm | - | 0 W/m² | - |
| 1787762588 | 23.33° C | 63% | 1005 hPa | 0 mm | - | 0 W/m² | - |
| 1787761689 | 23.33° C | 59% | 1006 hPa | 0 mm | - | 0 W/m² | - |
| 1787760788 | 23.33° C | 66% | 1006 hPa | 0 mm | - | 0 W/m² | - |
| 1787759888 | 23.33° C | 70% | 1005 hPa | 0 mm | - | 0 W/m² | - |
* Rain latest hour (hover to see other rain measurements)
** Current wind speed in m/s (hover to see current wind gust speed)